Glens Falls, NY

2:32 AM EST on December 12, 2017 (GMT -0500)
Bennett Memorial

Weather History for KGFL - March, 2012

Change the Weather History Date:

Thursday, March 1, 2012

  Actual Average Record
Temperature  
Mean Temperature 30 °F 25 °F  
Max Temperature 32 °F 37 °F 67 °F (2017)
Min Temperature 27 °F 14 °F -10 °F (2015)
Degree Days  
Heating Degree Days 35 40  
Month to date heating degree days 35 40  
Since 1 July heating degree days 4555 5660  
Cooling Degree Days 0 0  
Month to date cooling degree days 0 0  
Year to date cooling degree days 0 0  
Moisture  
Dew Point 29 °F    
Average Humidity 93    
Maximum Humidity 100    
Minimum Humidity 85    
Precipitation  
Precipitation 0.28 in 0.09 in 1.47 in (1987)
Month to date precipitation 0.28 0.09  
Year to date precipitation 3.22 5.03  
Sea Level Pressure  
Sea Level Pressure 29.82 in    
Wind  
Wind Speed 5 mph (NNE)    
Max Wind Speed 10 mph    
Max Gust Speed 13 mph    
Visibility 2 miles    
Events Fog , Snow    
T = Trace of Precipitation, MM = Missing Value Source: NWS Daily Summary

Daily Weather History Graph

Daily Weather History Graph

Search for Another Location

Airport or City:

Trip Planner

Search our weather history database for the weather conditions in past years. The results will help you decide how hot, cold, wet, or windy it might be!

Date:

Astronomy

Mar. 01, 2012 Rise Set
Actual Time 6:29 AM EST 5:44 PM EST
Civil Twilight 6:01 AM EST 6:12 PM EST
Nautical Twilight 5:28 AM EST 6:45 PM EST
Astronomical Twilight 4:55 AM EST 7:18 PM EST
Moon 10:53 AM EST (3/1) 1:34 AM EST (3/1)
Length of Visible Light 12h 11m
Length of Day
11h 14m
First Quarter, 56% of the Moon is Illuminated
Mar 1
First Quarter
Mar 8
Full
Mar 14
Last Quarter
Mar 22
New
Mar 30
First Quarter

Hourly Weather History & Observations

Time (EST) Temp. Windchill Dew Point Humidity Pressure Visibility Wind Dir Wind Speed Gust Speed Precip Events Conditions
12:53 AM 30.0 °F - 28.9 °F 96% 29.87 in 9.0 mi Calm Calm - 0.00 in   Overcast
1:53 AM 30.0 °F 26.5 °F 28.9 °F 96% 29.85 in 10.0 mi NW 3.5 mph - 0.00 in   Overcast
2:05 AM 30.2 °F 25.4 °F 28.4 °F 93% 29.80 in 1.8 mi North 4.6 mph - 0.00 in Snow Light Snow
2:19 AM 30.2 °F 22.6 °F 28.4 °F 93% 29.80 in 0.8 mi North 8.1 mph - 0.01 in Snow Light Snow
2:28 AM 30.2 °F 23.4 °F 28.4 °F 93% 29.78 in 2.0 mi North 6.9 mph - 0.01 in Snow Light Snow
2:53 AM 30.0 °F 24.1 °F 28.9 °F 96% 29.81 in 0.8 mi North 5.8 mph - 0.02 in Snow Light Snow
3:05 AM 30.2 °F 24.3 °F 28.4 °F 93% 29.78 in 0.8 mi North 5.8 mph - 0.00 in Snow Light Snow
3:26 AM 30.2 °F 24.3 °F 30.2 °F 100% 29.76 in 0.2 mi NNE 5.8 mph - 0.03 in Fog , Snow Heavy Snow
3:42 AM 30.2 °F 25.4 °F 30.2 °F 100% 29.76 in 0.8 mi North 4.6 mph - 0.05 in Snow Light Snow
3:53 AM 30.0 °F 23.2 °F 30.0 °F 100% 29.78 in 1.0 mi North 6.9 mph - 0.06 in Snow Light Snow
4:13 AM 30.2 °F 22.6 °F 30.2 °F 100% 29.74 in 0.5 mi North 8.1 mph - 0.01 in Fog , Snow Snow
4:34 AM 30.2 °F 24.3 °F 30.2 °F 100% 29.76 in 0.5 mi North 5.8 mph - 0.03 in Fog , Snow Snow
4:53 AM 30.0 °F 24.1 °F 30.0 °F 100% 29.78 in 0.5 mi NNE 5.8 mph - 0.06 in Fog , Snow Snow
5:53 AM 30.0 °F 22.4 °F 30.0 °F 100% 29.78 in 0.8 mi ENE 8.1 mph - 0.06 in Snow Light Snow
5:59 AM 30.2 °F 22.6 °F 30.2 °F 100% 29.75 in 1.0 mi ENE 8.1 mph - 0.00 in Snow Light Snow
6:17 AM 30.2 °F 23.4 °F 30.2 °F 100% 29.75 in 1.2 mi NE 6.9 mph - 0.00 in Snow Light Snow
6:53 AM 30.9 °F 26.2 °F 30.0 °F 96% 29.78 in 1.2 mi NNE 4.6 mph - 0.00 in Snow Light Snow
7:51 AM 30.2 °F 23.4 °F 30.2 °F 100% 29.75 in 0.8 mi NNE 6.9 mph - 0.01 in Snow Light Snow
7:53 AM 30.9 °F 25.2 °F 30.0 °F 96% 29.78 in 0.8 mi NNE 5.8 mph - 0.01 in Snow Light Snow
8:02 AM 30.2 °F 23.4 °F 30.2 °F 100% 29.75 in 1.0 mi NNE 6.9 mph - 0.00 in Snow Light Snow
8:15 AM 30.2 °F 23.4 °F 30.2 °F 100% 29.74 in 0.8 mi NNE 6.9 mph - 0.00 in Snow Light Snow
8:53 AM 30.9 °F 24.3 °F 30.0 °F 96% 29.78 in 1.0 mi North 6.9 mph - 0.01 in Snow Light Snow
9:05 AM 30.2 °F 23.4 °F 28.4 °F 93% 29.75 in 3.0 mi North 6.9 mph - 0.00 in Snow Light Snow
9:20 AM 30.2 °F 23.4 °F 28.4 °F 93% 29.75 in 2.5 mi NNE 6.9 mph - 0.00 in Snow Light Snow
9:36 AM 32.0 °F 25.6 °F 28.4 °F 87% 29.75 in 4.0 mi NNE 6.9 mph - 0.00 in Snow Light Snow
9:44 AM 32.0 °F 25.6 °F 28.4 °F 87% 29.75 in 3.0 mi NNE 6.9 mph - 0.00 in Snow Light Snow
9:53 AM 32.0 °F 25.6 °F 28.9 °F 88% 29.77 in 4.0 mi NNE 6.9 mph - 0.00 in   Overcast
10:22 AM 32.0 °F 25.6 °F 28.4 °F 87% 29.76 in 2.5 mi NNE 6.9 mph - 0.00 in Snow Light Snow
10:32 AM 32.0 °F 24.8 °F 30.2 °F 93% 29.76 in 1.2 mi North 8.1 mph - 0.00 in Snow Light Snow
10:53 AM 32.0 °F 26.4 °F 28.9 °F 88% 29.79 in 1.8 mi NE 5.8 mph - 0.00 in Snow Light Snow
11:06 AM 32.0 °F 24.8 °F 28.4 °F 87% 29.76 in 1.5 mi NE 8.1 mph - 0.00 in Snow Light Snow
11:43 AM 32.0 °F 24.8 °F 28.4 °F 87% 29.77 in 2.0 mi NNE 8.1 mph - 0.00 in Snow Light Snow
11:50 AM 32.0 °F 25.6 °F 28.4 °F 87% 29.77 in 1.0 mi NNE 6.9 mph - 0.00 in Snow Light Snow
11:53 AM 32.0 °F 26.4 °F 28.9 °F 88% 29.80 in 0.8 mi NNE 5.8 mph - 0.00 in Snow Light Snow
12:07 PM 32.0 °F 25.6 °F 28.4 °F 87% 29.77 in 1.0 mi NNE 6.9 mph - 0.00 in Snow Light Snow
12:19 PM 32.0 °F 26.4 °F 28.4 °F 87% 29.77 in 0.8 mi NNE 5.8 mph - 0.00 in Snow Light Snow
12:43 PM 32.0 °F 24.8 °F 28.4 °F 87% 29.78 in 1.2 mi NNE 8.1 mph - 0.00 in Snow Light Snow
12:49 PM 32.0 °F 26.4 °F 28.4 °F 87% 29.78 in 2.0 mi NNE 5.8 mph - 0.00 in Snow Light Snow
12:53 PM 32.0 °F 26.4 °F 28.9 °F 88% 29.81 in 2.5 mi NNE 5.8 mph - 0.00 in Snow Light Snow
1:00 PM 32.0 °F 26.4 °F 28.4 °F 87% 29.78 in 6.0 mi NNE 5.8 mph - 0.00 in   Overcast
1:53 PM 32.0 °F 24.2 °F 28.0 °F 85% 29.81 in 8.0 mi NNE 9.2 mph - 0.00 in   Overcast
2:53 PM 32.0 °F 25.6 °F 28.0 °F 85% 29.83 in 6.0 mi NE 6.9 mph - N/A   Overcast
3:04 PM 32.0 °F 24.2 °F 26.6 °F 80% 29.81 in 2.5 mi NE 9.2 mph - 0.00 in Snow Light Snow
3:14 PM 32.0 °F 24.8 °F 26.6 °F 80% 29.81 in 1.2 mi NE 8.1 mph - 0.00 in Snow Light Snow
3:26 PM 30.2 °F 23.4 °F 28.4 °F 93% 29.82 in 0.5 mi NE 6.9 mph - 0.01 in Fog , Snow Snow
3:34 PM 30.2 °F 24.3 °F 28.4 °F 93% 29.82 in 0.5 mi NE 5.8 mph - 0.01 in Fog , Snow Snow
3:50 PM 30.2 °F 24.3 °F 28.4 °F 93% 29.83 in 0.5 mi NE 5.8 mph - 0.01 in Fog , Snow Light Snow
3:53 PM 30.0 °F 24.1 °F 28.9 °F 96% 29.86 in 0.5 mi NE 5.8 mph - 0.01 in Fog , Snow Light Snow
4:06 PM 30.2 °F 24.3 °F 28.4 °F 93% 29.84 in 0.5 mi East 5.8 mph - 0.00 in Fog , Snow Light Snow
4:18 PM 30.2 °F 25.4 °F 28.4 °F 93% 29.85 in 0.2 mi ENE 4.6 mph - 0.01 in Fog , Snow Snow
4:37 PM 28.4 °F 23.3 °F 28.4 °F 100% 29.85 in 0.5 mi ENE 4.6 mph - 0.02 in Fog , Snow Snow
4:53 PM 28.9 °F 22.8 °F 28.9 °F 100% 29.89 in 0.2 mi NE 5.8 mph - 0.02 in Fog , Snow Snow
5:02 PM 28.4 °F 20.4 °F 28.4 °F 100% 29.87 in 0.2 mi NE 8.1 mph - 0.01 in Fog , Snow Snow
5:19 PM 28.4 °F 21.2 °F 28.4 °F 100% 29.88 in 0.5 mi ENE 6.9 mph - 0.01 in Fog , Snow Snow
5:26 PM 28.4 °F 20.4 °F 28.4 °F 100% 29.88 in 0.5 mi ENE 8.1 mph - 0.01 in Fog , Snow Snow
5:53 PM 28.0 °F 19.3 °F 28.0 °F 100% 29.93 in 0.5 mi ENE 9.2 mph - 0.02 in Fog , Snow Snow
6:06 PM 28.4 °F 21.2 °F 28.4 °F 100% 29.90 in 1.0 mi ENE 6.9 mph - 0.00 in Snow Light Snow
6:38 PM 28.4 °F 21.2 °F 28.4 °F 100% 29.92 in 1.5 mi NE 6.9 mph - 0.00 in Snow Light Snow
6:53 PM 28.0 °F 21.7 °F 27.0 °F 96% 29.95 in 2.0 mi NE 5.8 mph - 0.00 in Snow Light Snow
7:09 PM 28.4 °F 23.3 °F 26.6 °F 93% 29.93 in 1.8 mi ENE 4.6 mph - 0.00 in Snow Light Snow
7:36 PM 26.6 °F 22.6 °F 26.6 °F 100% 29.93 in 2.5 mi NE 3.5 mph - 0.01 in Snow Light Snow
7:49 PM 26.6 °F 22.6 °F 26.6 °F 100% 29.93 in 4.0 mi ENE 3.5 mph - 0.01 in Snow Light Snow
7:53 PM 27.0 °F 21.6 °F 27.0 °F 100% 29.96 in 5.0 mi ENE 4.6 mph - 0.01 in   Overcast
8:53 PM 28.0 °F 24.2 °F 25.0 °F 88% 29.97 in 10.0 mi ENE 3.5 mph - N/A   Overcast
9:53 PM 28.0 °F - 26.1 °F 92% 29.99 in 10.0 mi Calm Calm - N/A   Overcast
10:53 PM 27.0 °F - 26.1 °F 96% 30.00 in 10.0 mi Calm Calm - N/A   Overcast
11:53 PM 27.0 °F - 26.1 °F 96% 30.01 in 10.0 mi Calm Calm - N/A   Overcast